Powrót do katalogu

STARLINK-5287

AktywnyŁącznośćVLEO
NORAD 55293·PAYLOAD·🇺🇸 United States

Wystrzelony Jan 19, 2023 z Vandenberg Space Force Base

Loading…

Następne Przeloty (najbliższe 24 godziny)

TLE

ŚwieżeSource: CelesTrak SupGP

Epoka: Sep 15, 2026, 01:31 UTC

1 55293C 23010AA  26258.06368056 -.00011048  00000+0 -92562-3 0  2587
2 55293  70.0000 266.9596 0003260 270.2193 172.3470 14.98347692    19

Śledź STARLINK-5287 w czasie rzeczywistym z AllMySat

Download on the App Store